weather.gov     
National Weather Service

Regional Weather Roundup
NWS Homepage
This page is being discontinued on March 12, 2014.
The same data is available at this site. Please update your bookmarks.
Thank you, and we apologize for the inconvenience.
Please send an email to SR-SRH.Webmaster@noaa.gov with any concerns.


Current Version
Previous Version:    01  02  03  04  05  06  07  08  09  10  11  12  13  14  15  16  17  18  19  20  21  22  23  24  25  26  27  28  29  30  
   31  32  33  34  35  36  37  38  39  40  41  42  43  44  45  46  47  48  49  50  51  52  53  54  55  56  57  58  59  60  
[Printable]
668
ASUS46 KPDT 240225
RWRPDT
PENDLETON REGIONAL WEATHER ROUNDUP
NATIONAL WEATHER SERVICE PENDLETON OREGON
700 PM PDT WED APR 23 2014

NOTE: FAIR INDICATES FEW OR NO CLOUDS BELOW 12,000 FEET WITH NO
SIGNIFICANT WEATHER AND/OR OBSTRUCTIONS TO VISIBILITY.

# INDICATES UNOFFICIAL STATION AND DATA

WAZ520-240310-
EAST SLOPES OF WASHINGTON CASCADES

CITY            SKY/WX      TMP DP  RH  WIND    PRES   REMARKS
#CLE ELUM HS    N/A         43  40  89  CALM    29.77F
#CLE ELUM 2NW   N/A         42  40  93  SW1     N/A
#CLE ELUM LAKE  N/A         38  37  96  CALM    29.82F
#CLIFFDEL 2NW   N/A         43  40  89  NE2     N/A
#GLENWOOD       N/A         46  44  93  S2      29.83F
#MANASTASH CYN  N/A         41  37  86  CALM    29.78F
#NELSON         N/A         42  40  93  CALM    29.85F
#NELSON 3SW     N/A         38  37  96  CALM    30.06F
#NILE           N/A         46  42  86  E1      29.14S
#RONALD 2NW     N/A         41  37  86  N1      29.67F
#TEANAWAY 4NE   N/A         44  42  93  CALM    N/A
#TROUT LAKE HS  N/A         47  46  96  CALM    N/A
#TROUT LAKE 1NE N/A         45  43  93  CALM    29.84F
$$

WAZ521-240310-
SIMCOE HIGHLANDS

CITY            SKY/WX      TMP DP  RH  WIND    PRES   REMARKS
#BICKLETON HS   N/A         44  39  82  W3      29.85F
#CENTERVILLE 4W N/A         48  44  86  N3      29.57F
#CENTERVILLE 1SWN/A         48  42  80  CALM    29.81F
#GOLDENDALE 1NE N/A         48  41  77  CALM    N/A
#GOLDENDALE 1S  N/A         48  44  86  CALM    29.81F
#GOODNOE HILLS  N/A         51  46  83  W3      29.76F
#LYLE 6NE       N/A         48  44  86  CALM    29.81F
$$

WAZ026-240310-
KITTITAS VALLEY

CITY            SKY/WX      TMP DP  RH  WIND    PRES   REMARKS
ELLENSBURG AP   CLOUDY      50  38  63  CALM    29.80F
#ELLENSBURG CWU N/A         48  39  71  CALM    29.78F
#ELLENSBURG 3NE N/A         47  39  74  CALM    29.82F
#ELLENSBURG     N/A         51  43  74  N1      N/A
#ELLENSBURG 1E  N/A         49  37  63  CALM    N/A
#KITTITAS 3S    N/A         48  41  77  CALM    29.78F
#THORP 6N       N/A         43  39  86  SE2     29.85F
$$

WAZ027-240310-
YAKIMA VALLEY

CITY            SKY/WX      TMP DP  RH  WIND    PRES   REMARKS
YAKIMA AIRPORT  CLOUDY      55  40  57  S10     29.80F
YAKIMA-VAGABOND MOCLDY      52  42  69  S13     29.80F
#COWICHE 1N     N/A         49  40  71  N1      29.95F
#DONALD 2NE     N/A         53  42  66  NE2     30.13F
#GRANDVIEW      N/A         50  46  86  CALM    29.83F
#MABTON         N/A         51  48  89  E3      29.83S
#MOXEE 2E       N/A         52  37  56  E3      29.74F
#NACHES 2SW     N/A         49  43  80  CALM    29.79F
#OUTLOOK DOT    N/A         51  48  89  CALM    N/A
#SELAH 8E       N/A         48  42  80  S8      N/A
#TERRACE HTS    N/A         52  43  71  S2      29.78F
#TOPPENISH      N/A         52  46  80  E3      29.73F
#WAPATO 4NE     N/A         53  42  66  NE2     30.13F
#WEST VALLEY    N/A         53  40  61  S7      29.82F
#W YAKIMA       N/A         52  41  66  S3      29.80F
#WHITE SWAN 5E  N/A         55  42  61  SW7     29.81F
#WILEY CITY 3W  N/A         51  33  50  SW7     29.81F
$$

WAZ028-240310-
LOWER COLUMBIA BASIN...WASHINGTON

CITY            SKY/WX      TMP DP  RH  WIND    PRES   REMARKS
PASCO           CLOUDY      56  44  64  E5      29.85F
PROSSER AWOS    N/A         52  50  93  NE6     29.85
RICHLAND AWOS   MOCLDY      55  43  64  E7      29.84F
#BASIN CITY 5SW N/A         50  46  86  CALM    29.84F
#BENTON CITY    N/A         51  47  86  CALM    29.75F
#CONNELL 5N     N/A         50  42  74  E9      29.85F
#CONNELL 5NW    N/A         50  43  77  S7      29.82F
#ELTOPIA        N/A         52  47  83  CALM    29.81F
#ELTOPIA 6NW    N/A         49  45  86  SE6     28.82F
#KENNEWICK 3S   N/A         55  45  69  CALM    29.85F
#PASCO-BROADMOORN/A         56  45  66  SE2     29.75F
#PATERSON       N/A         57  41  55  CALM    29.81F
#PROSSER        N/A         51  48  89  CALM    29.83F
#SAGEMOOR 2W    N/A         52  45  77  CALM    29.70F
#TOUCHET 2S     N/A         54  49  83  CALM    29.84F
#WEST PASCO     N/A         56  44  64  E1      29.82F
$$

WAZ029-240310-
FOOTHILLS OF THE BLUES...WASHINGTON

CITY            SKY/WX      TMP DP  RH  WIND    PRES   REMARKS
WALLA WALLA AP  MOCLDY      55  42  61  S9      29.86F
#COLLEGE PLACE  N/A         59  42  53  S5      29.87F
#LOWDEN 2SE     N/A         57  47  69  CALM    29.82F
#PLEASANT VIEW 1N/A         48  43  83  S2      29.92F
#PRESCOTT       N/A         53  46  77  CALM    29.86F
#SUDBURY        N/A         57  N/A N/A CALM    N/A
#WHITMAN COLLEGEN/A         55  43  64  SE1     29.90F
#WAITSBURG 8N   N/A         50  37  61  S6      29.71F
#WALLA WALLA 5E N/A         53  42  66  SE6     N/A
#WALLA WALLA U  N/A         57  43  59  S3      29.86F
#WHITMAN MISSIONN/A         57  45  64  SE3     29.86F
$$

WAZ030-240310-
BLUE MOUNTAINS...WASHINGTON

CITY            SKY/WX      TMP DP  RH  WIND    PRES   REMARKS
$$

ORZ009-041-WAZ024-240310-
COLUMBIA RIVER GORGE

CITY            SKY/WX      TMP DP  RH  WIND    PRES   REMARKS
HOOD RIVER AP   RAIN        50  48  93  CALM    29.84F
THE DALLES AP   CLOUDY      53  46  77  N7      29.82F
#ARLINGTON AIRPON/A         54  46  74  SW1     25.32F
#ARLINGTON HS   N/A         57  45  64  CALM    29.74F
#CELILO DOT     N/A         55  41  59  S6      N/A
#MOSIER 1S      N/A         51  43  74  CALM    29.88S
#MURDOCK        N/A         52  49  89  NW3     29.85F
#RUFUS DOT      N/A         55  42  61  W2      N/A

$$

ORZ510-240310-
NORTH CENTRAL OREGON

CITY            SKY/WX      TMP DP  RH  WIND    PRES   REMARKS
#CHENOWITH 1W   N/A         47  -21  5  NW1     N/A
#COW CYN RST AREN/A         45  -62  0  S7      N/A
#GRASS VALLEY   N/A         46  44  93  S3      N/A
#GRASS VALLEY 1SN/A         47  43  86  SW1     29.88S
#KENT DOT       N/A         46  38  73  S10     N/A
#MAUPIN SCHOOL  N/A         56  42  59  SW1     29.86F
#MORO SCHOOL    N/A         51  45  80  SW1     29.84F
#SHANIKO 5WSW   N/A         43  37  79  S12     N/A    WCI 37
#SHANIKO 4NW    N/A         43  40  89  SW7G26  29.83F
#TYGH VALLEY 2NEN/A         52  44  74  W1      29.83F
#WASCO DOT      N/A         52  45  77  NW2     N/A
#WASCO 5NE      N/A         49  45  86  CALM    29.85F
$$

ORZ511-240310-
CENTRAL OREGON

CITY            SKY/WX      TMP DP  RH  WIND    PRES   REMARKS
BEND AIRPORT    CLOUDY      46  37  71  S13     29.88F WCI 40
MADRAS AIRPORT  LGT DRIZZLE 48  43  83  SW6     29.87F
REDMOND AIRPORT LGT RAIN    48  39  71  S13     29.86F WCI 43
#BEND 6E        N/A         46  36  68  CALM    29.84F
#BEND 1SW       N/A         42  40  93  SW2     N/A
#BEND-AWBREY    N/A         44  40  86  N6      29.90F
#BEND-KIM LN    N/A         46  41  83  S3      29.84F
#CULVER         N/A         49  40  71  SE6     29.82F
#LAKE BILLY CHINN/A         48  36  63  CALM    29.92F
#POWELL BUTTE 3EN/A         51  35  54  SW10    N/A
#POWELL BUTTE   N/A         47  39  74  S2      29.53F
#PRINEVILLE AIR N/A         55  40  57  S10     29.87F
#PRINEVILLE 3N  N/A         49  39  68  SE17    29.84F WCI 43
#WARM SPRINGS   N/A         54  43  66  SE5     29.84S


ORZ509-240310-
EAST SLOPES OF OREGON CASCADES

CITY            SKY/WX      TMP DP  RH  WIND    PRES   REMARKS
#BLUE BOX PASS  N/A         36  -12 12  CALM    N/A
#CAMP SHERMAN   N/A         44  39  82  CALM    29.88F
#LA PINE DOT    N/A         43  37  79  SW5     N/A
#LA PINE 4NW    N/A         42  37  82  CALM    29.98F
#LAVA BUTTE DOT N/A         39  38  96  SE5     N/A
#SISTERS AIRPOR N/A         47  44  89  S1      29.88F
#SISTERS ODOT   N/A         46  N/A N/A CALM    N/A
#SISTERS 3N     N/A         47  39  74  CALM    29.92S
#SUNRIVER       N/A         42  40  93  S3      29.81F
#SUNRIVER AP    N/A         41  39  93  SW7     29.90F
#SUTTLE LK DOT  N/A         35  35  100 SE17    N/A    WCI 25
#TUMALO 3W      N/A         44  39  82  SE7     29.77F
#WANOGA BUTTE D N/A         32  33  100 W13     N/A    WCI 22

$$

ORZ044-240310-
LOWER COLUMBIA BASIN...OREGON

CITY            SKY/WX      TMP DP  RH  WIND    PRES   REMARKS
HERMISTON       CLOUDY      60  40  47  W5      29.83S
#BOARDMAN SCHOOLN/A         60  42  51  W1      29.82F
#BOARDMAN 8SW   N/A         56  46  69  SW3     29.82F
#IONE SCHOOL    N/A         55  43  64  SW3     29.83F
#IRRIGON 4NW    N/A         60  42  51  CALM    N/A
#UMATILLA       N/A         60  40  47  CALM    29.81F
$$

ORZ507-240310-
NORTHERN FOOTHILLS OF THE BLUES

CITY            SKY/WX      TMP DP  RH  WIND    PRES   REMARKS
PENDLETON AIRPT CLOUDY      55  38  53  S6      29.84F
#ADAMS 3WNW     N/A         53  43  69  CALM    29.87F
#ATHENA         N/A         52  41  66  E1      29.89F
#HELIX SCHOOL   N/A         52  41  66  S7      29.86F
#HELIX 3N       N/A         51  41  68  S10     29.83F
#M-F FERNDALE   N/A         56  42  59  CALM    29.85F
#M-F GROVE ELEM N/A         56  39  53  CALM    29.85F
#M-FREEWATER 5SEN/A         54  41  61  E5      29.86F
#PDT AQUATIC CTRN/A         58  38  47  CALM    29.87S
#PENDLETON DNTN N/A         58  36  44  CALM    29.80F
#PDT SUNRIDGE   N/A         56  42  59  E2      29.85F
#PENDLETON 7NW  N/A         55  42  61  CALM    29.81F
#PILOT ROCK     N/A         55  40  57  S6      29.86F
#TUTUILLA       N/A         52  41  66  S1      29.78F
#UMAPINE 2E     N/A         55  43  64  S3      29.78F
#WESTON SCHOOL  N/A         51  38  61  S3      29.91S

$$

ORZ508-240310-
SOUTHERN FOOTHILLS OF THE BLUES

CITY            SKY/WX      TMP DP  RH  WIND    PRES   REMARKS
LEXINGTON       LGT RAIN    55  43  64  SW6     29.85S
#AJAX           N/A         52  35  52  N9G24   29.85F
#CONDON SCHOOL  N/A         49  39  68  S10     29.82F
#CONDON 5W      N/A         46  37  71  S15G24  29.81F WCI 40
#HEPPNER 4NE    N/A         50  39  66  W6      29.87S
#LEXINGTON 2SE  N/A         56  42  59  CALM    29.81F
#MIKKALO        N/A         51  44  77  E2      29.83F
#OLEX 4N        N/A         53  47  80  CALM    29.82F
#RUGGS 5NE      N/A         50  36  58  SW10    30.07S
#RUGGS 2SW      N/A         48  39  71  SW6     29.92S

$$

ORZ502-503-240310-
BLUE MOUNTAINS

CITY            SKY/WX      TMP DP  RH  WIND    PRES   REMARKS
MEACHAM         CLOUDY      43  41  93  CALM    29.87F
#BATTLE MTN DOT N/A         44  34  68  S6      N/A
#HARDMAN 10S    N/A         43  34  70  S7      29.93S
#HEPPNER 15SE   N/A         46  35  65  SW1     29.77S
#LADD CYN SMT   N/A         46  29  51  SE2     N/A
#LADD CREEK ODOTN/A         44  36  73  NE3     N/A
#LONG CREEK HS  N/A         46  39  76  S13     29.84S WCI 40
#N POWDER DOT   N/A         48  35  60  SE2     N/A
#TOLLGATE 9W    N/A         44  41  89  S6      N/A
#TROY SCHOOL    N/A         51  40  66  S6      29.77S
#UKIAH          N/A         49  37  63  S2      29.93F
#WESTON 4E      N/A         44  38  79  SE7     29.85F
$$

ORZ505-240310-
JOHN DAY BASIN

CITY            SKY/WX      TMP DP  RH  WIND    PRES   REMARKS
JOHN DAY        CLOUDY      46  36  68  SW6     29.92S
#JOHN DAY KJDY  N/A         52  46  80  CALM    29.83S
#DAYVILLE SCHOOLN/A         52  35  52  S9      29.89S
#MITCHELL SCHOOLN/A         51  41  68  CALM    29.96F
#MONUMENT HS    N/A         55  36  49  NW3     29.83F
#MT. VERNON 5SE N/A         44  36  73  E2      29.87F
$$

ORZ506-240310-
OCHOCO AND JOHN DAY HIGHLANDS

CITY            SKY/WX      TMP DP  RH  WIND    PRES   REMARKS
#ANTONE         N/A         32  N/A N/A CALM    N/A
#BUCK CREEK DOT N/A         47  41  79  S12     N/A    WCI 42
#HORSE RIDGE DO N/A         45  37  73  S10     N/A
#KEYES SMT DOT  N/A         43  34  70  S8      N/A
#PAULINA SCHOOL N/A         55  36  49  S2      29.91F
#PINE MTN OBS   N/A         34  33  96  S20G30  N/A    WCI 23
#PRAIRIE CITY   N/A         44  34  68  E1      29.98R
#SENECA 9NW     N/A         42  35  76  SW1     29.98F
$$

ORZ049-240310-
GRANDE RONDE VALLEY

CITY            SKY/WX      TMP DP  RH  WIND    PRES   REMARKS
LA GRANDE       CLOUDY      46  34  63  S3      29.89F
#COVE           N/A         44  41  89  E3      29.84F
#COVE SCHOOL    N/A         45  38  76  E2      29.89F
#COVE 6NW       N/A         43  39  86  CALM    29.98F
#ELGIN 3N       N/A         44  38  79  CALM    29.62F
#ELGIN 1E       N/A         44  39  82  CALM    N/A
#IMBLER SCHOOL  N/A         45  37  73  CALM    29.86F
#ISLAND CITY 4N N/A         45  41  86  S3      29.89F
#LADD CYN DOT   N/A         45  36  70  W5      N/A
#LA GRANDE ELEM N/A         44  39  82  W1      29.89S
#UNION 1S       N/A         48  39  71  NE7     29.84F
$$

ORZ050-240310-
WALLOWA COUNTY

CITY            SKY/WX      TMP DP  RH  WIND    PRES   REMARKS
JOSEPH AIRPORT  LGT RAIN    39  36  89  N3      29.92R
#ENTERPRISE HS  N/A         41  37  86  CALM    29.92R
#IMNAHA SCHOOL  N/A         48  39  71  N6      29.82R
#JOSEPH 3N      N/A         40  36  85  N2      29.94R
#LOSTINE        N/A         40  36  85  N1      29.75R
#MT HOWARD 8000 N/A         27  25  92  W6      29.85R
#PROMISE 1S     N/A         40  36  85  E7      30.05R
#SHEEP RDG 7000 N/A         27  25  92  CALM    30.05F
#WALLOWA SCHOOL N/A         41  37  86  CALM    30.89S



$$




U.S. Dept. of Commerce
NOAA National Weather Service
1325 East West Highway
Silver Spring, MD 20910
E-mail: w-nws.webmaster@noaa.gov
Page last modified: May 16, 2007
NATIONAL WEATHER SERVICE: for Safety, for Work, for Fun - FOR LIFE